Location: Saint-Hippolyte
(43.6394°N, 4.7559°E)
Time: 15:43:30
(UTC+00:00)

Cosmos 2297 Rocket - Pass Details

Date: 24 October 2020
Orbit: 838 x 845 km, 71.0° (Epoch: 23 November)

Event Time Altitude Azimuth Distance (km) Brightness Sun altitude
Rises 18:46:57 0° 333° (NNW) 3,413 5.8 -23.1°
Reaches altitude 10° 18:49:24 10° 332° (NNW) 2,474 5.0 -23.5°
Maximum altitude 18:55:04 75° 248° (WSW) 877 2.3 -24.6°
Enters shadow 18:57:57 30° 168° (SSE) 1,470 3.2 -25.1°
